Location: Tofino
(49.1330°N, 125.9000°W)
Time: 11:37:01
(UTC-08:00)

N. Korean satellite - Visible Passes

Search period start: 24 February 2018 00:00
Search period end: 06 March 2018 00:00
Orbit: 459 x 514 km, 97.2° (Epoch: 24 February)

Date Brightness Start Highest point End Pass type
(mag) Time Alt. Az. Time Alt. Az. Time Alt. Az.
24 Feb 10.1 19:22:46 10° WSW 19:24:29 13° W 19:26:13 10° WNW visible
25 Feb 9.3 18:57:40 10° SSW 19:00:32 23° W 19:03:26 10° NW visible
26 Feb 9.7 06:20:16 10° NE 06:23:12 22° E 06:26:08 10° SE visible
26 Feb 8.0 18:33:18 10° S 18:36:38 43° W 18:40:03 10° NNW visible
27 Feb 10.4 05:57:36 10° ENE 05:59:14 12° E 06:00:53 10° ESE visible
28 Feb 10.1 19:21:04 10° WSW 19:22:55 14° W 19:24:48 10° WNW visible
01 Mar 9.3 18:56:02 10° SSW 18:58:57 24° W 19:01:56 10° NW visible
02 Mar 9.8 06:18:44 10° NE 06:21:39 21° E 06:24:34 10° SE visible
03 Mar 10.5 05:56:05 10° ENE 05:57:40 12° E 05:59:15 10° ESE visible
04 Mar 10.1 19:19:18 10° SW 19:21:19 14° W 19:23:20 10° NW visible
05 Mar 9.3 18:54:19 10° SSW 18:57:19 25° W 19:00:23 10° NW visible
